Date String (YYYY-MM-DD hh:mm:ss) UTC,Instrument flags,absolute air pressure of the measurement (hPa),sample flow rate (lpm),inlet stack bypass flow (lpm),air temperature of the measurement (°C),ambient temperature measured by the external sensor (°C),aerosol sample conditioner tube jacket temperature (°C),OPC LED temperature (°C),internal box temperature (°C),relative humidity of the measurement (%),span deviation,mass concentration of particles derived from Lorenz-Mie calculation of OPC scattering (μg/m³),mass concentration of particles derived from Lorenz-Mie calculation of OPC scattering (μg/m³),mass concentration of particles derived from Lorenz-Mie calculation of OPC scattering (μg/m³)
DateTimeUTC,F1_M11,P_M11,Q1_M11,Q2_M11,T1_M11,T2_M11,T3_M11,T4_M11,T5_M11,U1_M11,ZSPAN_M11,X0_M11,X2_M11,X1_M11
2023-11-07 03:00:00,SystemResetWarning,0823.7,4.99,000.00,027.7,026.6,000.0,036.1,029.1,9.7,0002.1,0010.36,0004.97,0004.18
2023-11-07 03:01:00,SystemResetWarning,0823.6,4.99,000.00,027.7,026.6,000.0,036.1,029.2,9.7,0004.9,0010.01,0004.94,0004.15
2023-11-07 03:02:00,SystemResetWarning,0823.6,5.01,000.00,027.7,026.7,000.0,036.1,029.2,9.7,0004.7,0009.78,0004.94,0004.12
2023-11-07 03:03:00,SystemResetWarning,0823.6,5.01,000.00,027.7,026.8,000.0,036.1,029.2,9.7,0003.1,0009.75,0004.92,0004.11
2023-11-07 03:04:00,SystemResetWarning,0823.6,5.01,000.00,027.8,026.8,000.0,036.1,029.3,9.6,0004.5,0010.45,0004.96,0004.10
2023-11-07 03:05:00,SystemResetWarning,0823.6,5.00,000.00,027.8,026.8,000.0,036.1,029.3,9.6,0000.0,0011.22,0004.97,0004.08
2023-11-07 03:06:00,SystemResetWarning,0823.6,4.99,000.00,027.8,026.9,000.0,036.1,029.3,9.6,0000.0,0011.50,0004.96,0004.06
2023-11-07 03:07:00,SystemResetWarning,0823.6,4.99,000.00,027.8,026.9,000.0,036.1,029.3,9.6,0000.0,0011.88,0004.96,0004.05
2023-11-07 03:08:00,SystemResetWarning,0823.6,5.00,000.00,027.8,026.9,000.0,036.1,029.3,9.6,0000.0,0012.65,0004.98,0004.04
2023-11-07 03:09:00,SystemResetWarning,0823.6,5.00,000.00,027.8,027.0,000.0,036.1,029.3,9.5,0000.0,0012.91,0004.95,0004.01
2023-11-07 03:10:00,SystemResetWarning,0823.6,5.00,000.00,027.8,027.0,000.0,036.1,029.3,9.5,0000.0,0013.01,0004.93,0003.99
2023-11-07 03:11:00,SystemResetWarning,0823.6,5.01,000.00,027.9,027.0,000.0,036.2,029.4,9.5,0000.0,0012.92,0004.90,0003.97
2023-11-07 03:12:00,SystemResetWarning,0823.6,5.00,000.00,027.9,027.0,000.0,036.2,029.4,9.6,0000.0,0012.72,0004.86,0003.96
2023-11-07 03:13:00,SystemResetWarning,0823.5,5.00,000.00,027.9,027.0,000.0,036.2,029.4,9.6,0000.0,0012.90,0004.82,0003.96
2023-11-07 03:14:00,SystemResetWarning,0823.5,4.99,000.00,027.9,027.0,000.0,036.2,029.4,9.5,0000.0,0013.45,0004.81,0003.93
2023-11-07 03:15:00,SystemResetWarning,0823.5,5.00,000.00,027.9,027.0,000.0,036.2,029.4,9.5,0000.6,0014.02,0004.78,0003.91
2023-11-07 03:16:00,SystemResetWarning,0823.6,5.00,000.00,027.9,027.1,000.0,036.2,029.4,9.6,0002.0,0013.32,0004.72,0003.89
2023-11-07 03:17:00,SystemResetWarning,0823.6,5.00,000.00,027.9,027.1,000.0,036.2,029.4,9.5,0003.2,0013.08,0004.72,0003.89
2023-11-07 03:18:00,SystemResetWarning,0823.5,5.00,000.00,027.9,027.1,000.0,036.2,029.4,9.6,0003.6,0013.42,0004.70,0003.88
2023-11-07 03:19:00,SystemResetWarning,0823.5,5.00,000.00,028.0,027.1,000.0,036.3,029.5,9.5,0003.6,0013.19,0004.68,0003.87
2023-11-07 03:20:00,SystemResetWarning,0823.5,5.00,000.00,028.0,027.1,000.0,036.3,029.5,9.5,0003.2,0012.94,0004.66,0003.87
2023-11-07 03:21:00,SystemResetWarning,0823.5,5.00,000.00,028.0,027.1,000.0,036.3,029.5,9.4,0003.3,0012.92,0004.63,0003.86
2023-11-07 03:22:00,SystemResetWarning,0823.5,5.00,000.00,028.0,027.2,000.0,036.3,029.5,9.4,0004.1,0013.37,0004.62,0003.87
2023-11-07 03:23:00,SystemResetWarning,0823.5,5.00,000.00,028.0,027.2,000.0,036.3,029.5,9.4,0004.4,0013.60,0004.65,0003.87
2023-11-07 03:24:00,SystemResetWarning,0823.6,5.00,000.00,028.0,027.2,000.0,036.3,029.5,9.4,0004.7,0013.52,0004.69,0003.88
2023-11-07 03:25:00,SystemResetWarning,0823.6,5.00,000.00,028.1,027.2,000.0,036.3,029.5,9.3,0000.9,0012.67,0004.63,0003.87
2023-11-07 03:26:00,SystemResetWarning,0823.7,5.00,000.00,028.1,027.2,000.0,036.3,029.5,9.3,0000.0,0011.47,0004.57,0003.86
2023-11-07 03:27:00,SystemResetWarning,0823.6,5.01,000.00,028.1,027.2,000.0,036.4,029.5,9.3,0000.0,0011.13,0004.56,0003.85
2023-11-07 03:28:00,SystemResetWarning,0823.6,5.00,000.00,028.1,027.2,000.0,036.4,029.5,9.2,0000.0,0011.87,0004.54,0003.83
2023-11-07 03:29:00,SystemResetWarning,0823.6,4.99,000.00,028.1,027.2,000.0,036.4,029.6,9.3,0000.0,0012.28,0004.51,0003.80
2023-11-07 03:30:00,SystemResetWarning,0823.6,5.00,000.00,028.1,027.2,000.0,036.4,029.6,9.6,0000.0,0011.55,0004.47,0003.77
2023-11-07 03:31:00,SystemResetWarning,0823.7,5.00,000.00,028.1,027.2,000.0,036.4,029.6,9.6,0000.0,0011.95,0004.42,0003.74
2023-11-07 03:32:00,SystemResetWarning,0823.7,5.01,000.00,028.1,027.2,000.0,036.4,029.6,9.3,0000.0,0012.30,0004.39,0003.72
2023-11-07 03:33:00,SystemResetWarning,0823.7,5.01,000.00,028.1,027.2,000.0,036.4,029.6,9.3,0000.0,0011.58,0004.31,0003.68
2023-11-07 03:34:00,SystemResetWarning,0823.7,5.02,000.00,028.1,027.2,000.0,036.4,029.6,9.2,0000.0,0011.37,0004.24,0003.64
2023-11-07 03:35:00,SystemResetWarning,0823.7,5.00,000.00,028.1,027.2,000.0,036.4,029.6,9.1,0000.0,0011.46,0004.21,0003.62
2023-11-07 03:36:00,SystemResetWarning,0823.6,5.00,000.00,028.2,027.2,000.0,036.5,029.6,9.1,0000.0,0011.43,0004.19,0003.61
2023-11-07 03:37:00,SystemResetWarning,0823.6,5.00,000.00,028.2,027.2,000.0,036.5,029.6,9.1,0000.0,0011.56,0004.16,0003.58
2023-11-07 03:38:00,SystemResetWarning,0823.6,5.00,000.00,028.2,027.3,000.0,036.5,029.6,9.1,0000.0,0011.51,0004.13,0003.56
2023-11-07 03:39:00,SystemResetWarning,0823.6,5.00,000.00,028.2,027.3,000.0,036.5,029.6,9.1,0000.0,0010.86,0004.13,0003.54
2023-11-07 03:40:00,SystemResetWarning,0823.7,5.00,000.00,028.2,027.2,000.0,036.5,029.6,9.1,0000.0,0009.91,0004.13,0003.55
2023-11-07 03:41:00,SystemResetWarning,0823.7,5.00,000.00,028.2,027.2,000.0,036.5,029.6,9.0,0000.0,0009.77,0004.14,0003.55
2023-11-07 03:42:00,SystemResetWarning,0823.7,5.00,000.00,028.2,027.2,000.0,036.5,029.6,9.1,0000.0,0009.76,0004.14,0003.55
2023-11-07 03:43:00,SystemResetWarning,0823.7,5.00,000.00,028.2,027.2,000.0,036.5,029.6,9.1,0000.0,0009.72,0004.16,0003.54
2023-11-07 03:44:00,SystemResetWarning,0823.8,4.99,000.00,028.2,026.4,000.0,036.5,029.6,9.2,0000.0,0009.67,0004.17,0003.55
2023-11-07 03:45:00,SystemResetWarning,0823.7,5.00,000.00,028.1,024.3,000.0,036.4,029.4,9.2,0000.0,0009.71,0004.20,0003.57
2023-11-07 03:46:00,SystemResetWarning,0823.7,5.01,000.00,028.0,023.8,000.0,036.4,029.1,9.1,0000.0,0009.93,0004.17,0003.55
2023-11-07 03:47:00,SystemResetWarning,0823.6,5.01,000.00,027.8,024.1,000.0,036.3,028.7,9.1,0000.0,0011.42,0004.14,0003.49
2023-11-07 03:48:00,SystemResetWarning,0823.6,5.00,000.00,027.7,024.5,000.0,036.3,028.6,9.2,0000.0,0011.78,0004.09,0003.46
2023-11-07 03:49:00,SystemResetWarning,0823.7,4.99,000.00,027.6,024.9,000.0,036.2,028.7,9.6,0000.0,0011.57,0004.07,0003.44
2023-11-07 03:50:00,SystemResetWarning,0823.7,5.00,000.00,027.6,025.3,000.0,036.2,028.8,9.5,0000.0,0011.28,0004.04,0003.42
2023-11-07 03:51:00,SystemResetWarning,0823.7,5.00,000.00,027.6,025.5,000.0,036.2,028.9,9.3,0000.0,0011.65,0003.98,0003.36
2023-11-07 03:52:00,SystemResetWarning,0823.7,4.99,000.00,027.6,025.8,000.0,036.1,028.9,9.3,0000.0,0011.90,0003.90,0003.31
2023-11-07 03:53:00,SystemResetWarning,0823.7,4.99,000.00,027.6,026.0,000.0,036.1,028.9,9.4,0000.0,0011.61,0003.85,0003.27
2023-11-07 03:54:00,SystemResetWarning,0823.7,5.00,000.00,027.6,026.1,000.0,036.1,029.0,9.3,0000.0,0010.91,0003.77,0003.23
2023-11-07 03:55:00,SystemResetWarning,0823.7,5.00,000.00,027.6,026.2,000.0,036.1,029.0,9.2,0000.0,0011.03,0003.70,0003.17
2023-11-07 03:56:00,SystemResetWarning,0823.7,5.00,000.00,027.6,026.3,000.0,036.1,029.1,9.1,0000.0,0011.35,0003.63,0003.12
2023-11-07 03:57:00,SystemResetWarning,0823.6,5.00,000.00,027.6,026.4,000.0,036.1,029.1,9.1,0000.0,0010.85,0003.62,0003.09
2023-11-07 03:58:00,SystemResetWarning,0823.6,5.00,000.00,027.6,026.5,000.0,036.1,029.2,9.1,0000.0,0009.39,0003.61,0003.11
2023-11-07 03:59:00,SystemResetWarning,0823.6,4.99,000.00,027.7,026.6,000.0,036.0,029.2,9.1,0000.0,0008.85,0003.61,0003.11
